Zurück zum Katalog

METEOSAT 11

MSG 4

AktivWetterGEO
NORAD 40732·PAYLOAD·🇪🇺 EU

Gestartet Jul 15, 2015 von Guiana Space Centre

Loading…

TLE

AktuellSource: Space-Track

Epoche: Sep 14, 2026, 18:58 UTC

1 40732U 15034A   26257.79078767  .00000055  00000-0  00000-0 0  9992
2 40732   3.4203  70.4585 0000608  77.8078 139.4294  1.00273035  8113

Verfolge METEOSAT 11 in Echtzeit mit AllMySat

Download on the App Store